Other Surface Observations
Issued by NWS Charleston, SC

Home | Current Version | Previous Version | Text Only | Print | Product List | Glossary On
Versions: 1 2 3 4 5 6 7 8 9 10 11 12 13 14 15 16 17 18 19 20 21 22 23 24 25 26 27 28 29 30 31 32 33 34 35 36 37 38 39 40 41 42 43 44 45 46 47 48 49 50
000
SXUS52 KCHS 280212
OSOCHS

MARINE OBSERVATIONS
NATIONAL WEATHER SERVICE CHARLESTON SC
1000 PM EDT WED MAY 27 2015

...DOWNTOWN CHARLESTON AND HARBOR...

CITY           SKY/WX    TMP DP  RH WIND       PRES   REMARKS
WATERFRONT PRK   N/A     77  70  79 SE7       30.17F
FORT JOHNSON   NOT AVBL

...LAKE MOULTRIE...

CITY           SKY/WX    TMP DP  RH WIND       PRES   REMARKS
PINOPOLIS        N/A     79  68  69 VRB2      30.13R

...LAKE AND SUPPLEMENTAL COASTAL OBSERVATIONS...

STATION/POSITION TIME  TEMP    WIND        PRES    WAVE   SWELL
                       AIR SEA DIR/SP/G            HT/PER HT/PER/DIR
                 (UTC) (F)     (DEG/KT/KT) (MB)    (FT/S) (FT/S/D)
FORT PULASKI     0100   76 80  120/  4/  5 1022.8F
SAPELO ISLAND    0100   76     120/  4     1022.0S
UPR LAKE MARION  NOT AVBL
WINYAH BAY       NOT AVBL
LAKE MURRAY      0100   78     130/  5/  9 1021.7R
ACE BASIN NERRS  NOT AVBL


...C-MAN AND BUOY OBSERVATIONS...

STATION/POSITION TIME  TEMP    WIND        PRES    WAVE   SWELL
                       AIR SEA DIR/SP/G            HT/PER HT/PER/DIR
                 (UTC) (F)     (DEG/KT/KT) (MB)    (FT/S) (FT/S/D)
BUOY 41004       0150   77 78  140/  8/ 10 1022.7R   3/ 7   3/ 7
BUOY 41008       0150   78 78  130/ 10/ 10 1022.9R   2/ 7   2/120/ 7
FOLLY BEACH CMAN 0200   77     130/ 10/ 12 1022.9F
CAPERS NS BUOY   0108   77     160/  8/ 10 1022.9F
FRIPP NS BUOY    0100   78     140/  6/  6 1022.0F
5E ST. MARYS GA  0121      80                N/A     3/ 8


STATION/POSITION TIME  TEMP    WIND        PRES    WAVE   SWELL
                       AIR SEA DIR/SP/G            HT/PER HT/PER/DIR
                 (UTC) (F)     (DEG/KT/KT) (MB)    (FT/S) (FT/S/D)
FRYING PAN BUOY  0150   76 76  160/ 10/ 14 1024.2R   3/ 6   3/120/ 6
BUOY 41025       0150   74 77  180/ 14/ 17 1024.7R   3/ 7   2/140/ 7
CAPE LOOKOUT NC  0200   74     180/ 10/ 11 1024.3R
BUOY 41002       0150   73 74  100/ 12/ 16 1023.8S   4/ 8   3/100/ 8
BUOY 41010       0120   77 80   70/ 14/ 16 1021.7R
ST AUGUSTINE FL  0200   78 80  110/ 11/ 13 1022.7R

$$



USA.gov is the U.S. government's official web portal to all federal, state and local government web resources and services.